Location: Recife
(8.0585°S, 34.8848°W)
Time: 10:07:57
(UTC-03:00)

Courier 1B Rocket - Pass Details

Date: 16 April 2026
Orbit: 920 x 1201 km, 28.2° (Epoch: 13 May)

Event Time Altitude Azimuth Distance (km) Brightness Sun altitude
Rises 05:36:41 0° 275° (W) 3,589 7.3 2.8°
Reaches altitude 10° 05:39:30 10° 266° (W) 2,674 6.7 3.5°
Maximum altitude 05:45:17 34° 202° (SSW) 1,574 5.9 4.9°
Drops below altitude 10° 05:51:26 10° 139° (SE) 2,845 7.9 6.4°
Sets 05:54:32 0° 130° (SE) 3,849 8.7 7.1°
